weather.gov     
National Weather Service

Regional Weather Roundup
NWS Homepage
This page is being discontinued on March 12, 2014.
The same data is available at this site. Please update your bookmarks.
Thank you, and we apologize for the inconvenience.
Please send an email to SR-SRH.Webmaster@noaa.gov with any concerns.


Current Version
Previous Version:    01  02  03  04  05  06  07  08  09  10  11  12  13  14  15  16  17  18  19  20  21  22  23  24  25  26  27  28  29  30  
   31  32  33  34  35  36  37  38  39  40  41  42  43  44  45  46  47  48  49  50  51  52  53  
[Printable]
071
ASUS44 KJAN 180010
RWRMS

MISSISSIPPI HOURLY WEATHER ROUNDUP
NATIONAL WEATHER SERVICE JACKSON MS
700 PM CDT THU APR 17 2014

NOTE: "FAIR: INDICATES FEW OR NO CLOUDS BELOW 12,000 FEET WITH NO
SIGNIFICANT WEATHER AND/OR OBSTRUCTIONS TO VISIBILITY.

MSZ001>002-007>008-010>013-018>021-025>028-034>036-180100-
NORTHWEST MISSISSIPPI

CITY           SKY/WX    TMP DP  RH WIND       PRES   REMARKS
CLARKSDALE       N/A     64  50  59 CALM      30.21R
CLEVELAND      FAIR      66  50  55 CALM      30.18S
GREENWOOD      CLOUDY    65  46  50 E5        30.19S
6HR MIN TEMP:  65; 6HR MAX TEMP:  70;

GREENVILLE     CLOUDY    66  50  56 CALM      30.17S
6HR MIN TEMP:  66; 6HR MAX TEMP:  68;

GRENADA        FAIR      63  46  55 E5        30.19F
OLIVE BRANCH   CLOUDY    64  41  42 SE7       30.21R
OXFORD         FAIR      63  43  48 CALM      30.23R
TUNICA         CLOUDY    64  46  52 SE9       30.20R
$$

MSZ003>006-009-014>017-022>024-029>033-037>039-180100-
NORTHEAST MISSISSIPPI

CITY           SKY/WX    TMP DP  RH WIND       PRES   REMARKS
BELMONT        FAIR      63  45  51 E3        30.21S
COLUMBUS AFB   CLOUDY    65  49  56 S8        30.21S
6HR MIN TEMP:  65; 6HR MAX TEMP:  70;

CORINTH        FAIR      64  41  42 SE6       30.21R
GOLDN TRIANGLE PTCLDY    63  48  59 S7        30.24R
STARKVILLE     FAIR      63  52  67 SE5       30.21R
TUPELO         CLOUDY    66  43  43 SE3       30.20S
6HR MIN TEMP:  56; 6HR MAX TEMP:  69;

$$

MSZ040-058-180100-
CENTRAL MISSISSIPPI

CITY           SKY/WX    TMP DP  RH WIND       PRES   REMARKS
JACKSON INTL   CLOUDY    63  52  67 E3        30.18F
6HR MIN TEMP:  63; 6HR MAX TEMP:  68;

JACKSON HAWKNS CLOUDY    64  50  60 E6        30.18S
6HR MIN TEMP:  64; 6HR MAX TEMP:  69;

MERIDIAN KEY   CLOUDY    62  51  67 E5        30.21S
6HR MIN TEMP:  62; 6HR MAX TEMP:  68;

MERIDIAN NAS   CLOUDY    62  51  67 CALM      30.21F
6HR MIN TEMP:  61; 6HR MAX TEMP:  67;

RAYMOND        FAIR      63  57  82 E5        30.18R
VICKSBURG      CLOUDY    66  54  65 E9        30.16S
6HR MIN TEMP:  66; 6HR MAX TEMP:  68;

$$

MSZ059>079-180100-
SOUTH MISSISSIPPI

CITY           SKY/WX    TMP DP  RH WIND       PRES   REMARKS
BROOKHAVEN     FAIR      63  55  77 CALM      30.18S
COLUMBIA       MOCLDY    61  55  82 MISG      30.16S
HATTIESBURG    CLOUDY    63  56  78 N5        30.18S HAZE
6HR MIN TEMP:  63; 6HR MAX TEMP:  68;

MCCOMB         CLOUDY    63  55  75 MISG      30.16S
6HR MIN TEMP:  63; 6HR MAX TEMP:  65;

NATCHEZ        CLOUDY    64  54  68 SE5       30.16R
6HR MIN TEMP:  64; 6HR MAX TEMP:  66;

PINE BELT      CLOUDY    63  54  72 N5        30.19S
6HR MIN TEMP:  63; 6HR MAX TEMP:  64;

$$

MSZ080>082-180100-
COASTAL MISSISSIPPI

CITY           SKY/WX    TMP DP  RH WIND       PRES   REMARKS
BAY ST LOUIS   LGT RAIN  63  57  82 CALM      30.16R
BILOXI         CLOUDY    65  60  84 N5        30.14F
6HR MIN TEMP:  65; 6HR MAX TEMP:  68;

PASCAGOULA     CLOUDY    65  57  75 SE8       30.14F
6HR MIN TEMP:  65; 6HR MAX TEMP:  70; 6HR PCP: TRACE;

GULFPORT       CLOUDY    68  58  70 N3        30.14F
6HR MIN TEMP:  66; 6HR MAX TEMP:  69; 6HR PCP: TRACE;

$$




U.S. Dept. of Commerce
NOAA National Weather Service
1325 East West Highway
Silver Spring, MD 20910
E-mail: w-nws.webmaster@noaa.gov
Page last modified: May 16, 2007
NATIONAL WEATHER SERVICE: for Safety, for Work, for Fun - FOR LIFE